Appleton, MN

1:08 AM CST on November 15, 2019 (GMT -0600)
Appleton Municipal

Weather History for KAQP - August, 2019

Change the Weather History Date:

Thursday, August 29, 2019

  Actual Average Record
Temperature  
Mean Temperature 61 °F -  
Max Temperature 71 °F 77 °F 96 °F (2013)
Min Temperature 51 °F 54 °F 44 °F (2006)
Degree Days  
Heating Degree Days 4    
Growing Degree Days 11 (Base 50)    
Moisture  
Dew Point 50 °F    
Average Humidity 64    
Maximum Humidity 88    
Minimum Humidity 43    
Precipitation  
Precipitation 0.00 in - - ()
Sea Level Pressure  
Sea Level Pressure 29.90 in    
Wind  
Wind Speed 5 mph (NW)    
Max Wind Speed 20 mph    
Max Gust Speed 29 mph    
Visibility 10 miles    
Events      
Averages and records for this station are not official NWS values.
T = Trace of Precipitation, MM = Missing Value Source: NWS Daily Summary

Daily Weather History Graph

Daily Weather History Graph

Search for Another Location

Airport or City:

Astronomy

Aug. 29, 2019 Rise Set
Actual Time 6:41 AM CDT 8:07 PM CDT
Civil Twilight 6:11 AM CDT 8:37 PM CDT
Nautical Twilight 5:34 AM CDT 9:14 PM CDT
Astronomical Twilight 4:54 AM CDT 9:54 PM CDT
Moon 5:22 AM CDT (8/29) 8:08 PM CDT (8/29)
Length of Visible Light 14h 26m
Length of Day
13h 25m
Waning Crescent, 1% of the Moon is Illuminated
Aug 29
Waning Crescent
Aug 30
New
Sep 5
First Quarter
Sep 13
Full
Sep 21
Last Quarter

Hourly Weather History & Observations

Time (CDT) Temp. Dew Point Humidity Pressure Visibility Wind Dir Wind Speed Gust Speed Precip Events Conditions
12:11 AM 59.0 °F 53.6 °F 82% 29.85 in 10.0 mi Calm Calm - N/A   Clear
12:31 AM 59.0 °F 51.8 °F 77% 29.83 in 10.0 mi Calm Calm - N/A   Clear
12:51 AM 60.8 °F 53.6 °F 77% 29.82 in 10.0 mi Calm Calm - N/A   Clear
1:11 AM 60.8 °F 51.8 °F 72% 29.81 in 10.0 mi Calm Calm - N/A   Clear
1:31 AM 59.0 °F 51.8 °F 77% 29.81 in 10.0 mi Calm Calm - N/A   Clear
1:51 AM 59.0 °F 51.8 °F 77% 29.80 in 10.0 mi South 4.6 mph - N/A   Clear
2:10 AM 59.0 °F 51.8 °F 77% 29.79 in 10.0 mi Calm Calm - N/A   Clear
2:31 AM 60.8 °F 51.8 °F 72% 29.78 in 10.0 mi South 3.5 mph - N/A   Clear
2:51 AM 60.8 °F 51.8 °F 72% 29.77 in 10.0 mi Calm Calm - N/A   Clear
3:10 AM 60.8 °F 51.8 °F 72% 29.76 in 10.0 mi Calm Calm - N/A   Clear
3:31 AM 60.8 °F 50.0 °F 68% 29.75 in 10.0 mi Calm Calm - N/A   Clear
3:50 AM 60.8 °F 50.0 °F 68% 29.74 in 10.0 mi South 9.2 mph - N/A   Clear
4:11 AM 60.8 °F 51.8 °F 72% 29.73 in 10.0 mi South 3.5 mph - N/A   Clear
4:31 AM 60.8 °F 51.8 °F 72% 29.72 in 10.0 mi Calm Calm - N/A   Clear
4:50 AM 59.0 °F 51.8 °F 77% 29.72 in 10.0 mi Calm Calm - N/A   Mostly Cloudy
5:11 AM 59.0 °F 51.8 °F 77% 29.71 in 10.0 mi Calm Calm - N/A   Scattered Clouds
5:31 AM 60.8 °F 53.6 °F 77% 29.71 in 10.0 mi Calm Calm - N/A   Clear
5:51 AM 59.0 °F 53.6 °F 82% 29.75 in 10.0 mi Calm Calm - N/A   Scattered Clouds
6:10 AM 59.0 °F 55.4 °F 88% 29.75 in 10.0 mi Calm Calm - N/A   Clear
6:31 AM 62.6 °F 59.0 °F 88% 29.76 in 10.0 mi West 9.2 mph - N/A   Clear
6:51 AM 64.4 °F 59.0 °F 83% 29.77 in 10.0 mi Calm Calm - N/A   Clear
7:11 AM 64.4 °F 55.4 °F 73% 29.79 in 10.0 mi Calm Calm - N/A   Clear
7:30 AM 64.4 °F 53.6 °F 68% 29.80 in 10.0 mi NW 3.5 mph - N/A   Clear
8:10 AM 64.4 °F 51.8 °F 64% 29.82 in 10.0 mi WNW 9.2 mph - N/A   Clear
8:30 AM 64.4 °F 51.8 °F 64% 29.83 in 10.0 mi NW 12.7 mph 17.3 mph N/A   Clear
8:51 AM 64.4 °F 51.8 °F 64% 29.84 in 10.0 mi NW 13.8 mph 19.6 mph N/A   Clear
9:11 AM 66.2 °F 51.8 °F 60% 29.85 in 10.0 mi NW 13.8 mph 21.9 mph N/A   Clear
9:30 AM 66.2 °F 50.0 °F 56% 29.86 in 10.0 mi NW 12.7 mph 24.2 mph N/A   Clear
9:51 AM 66.2 °F 48.2 °F 52% 29.87 in 10.0 mi NW 18.4 mph 25.3 mph N/A   Clear
10:11 AM 68.0 °F 48.2 °F 49% 29.88 in 10.0 mi NW 16.1 mph 23.0 mph N/A   Clear
10:31 AM 68.0 °F 48.2 °F 49% 29.89 in 10.0 mi NW 17.3 mph 28.8 mph N/A   Clear
10:51 AM 68.0 °F 50.0 °F 52% 29.90 in 10.0 mi NW 19.6 mph 25.3 mph N/A   Clear
12:32 PM 68.0 °F 46.4 °F 46% 29.94 in 10.0 mi NW 19.6 mph 27.6 mph N/A   Unknown
12:51 PM 69.8 °F 46.4 °F 43% 29.94 in 10.0 mi NNW 17.3 mph 24.2 mph N/A   Clear
1:11 PM 69.8 °F 48.2 °F 46% 29.95 in 10.0 mi NW 15.0 mph 23.0 mph N/A   Scattered Clouds
1:31 PM 69.8 °F 48.2 °F 46% 29.95 in 10.0 mi NW 12.7 mph 23.0 mph N/A   Scattered Clouds
1:50 PM 69.8 °F 48.2 °F 46% 29.96 in 10.0 mi NW 15.0 mph 21.9 mph N/A   Scattered Clouds
2:10 PM 69.8 °F 46.4 °F 43% 29.96 in 10.0 mi NW 16.1 mph 25.3 mph N/A   Clear
2:31 PM 69.8 °F 48.2 °F 46% 29.96 in 10.0 mi NW 16.1 mph 24.2 mph N/A   Clear
2:51 PM 69.8 °F 48.2 °F 46% 29.96 in 10.0 mi NW 18.4 mph 23.0 mph N/A   Scattered Clouds
3:11 PM 71.6 °F 48.2 °F 43% 29.96 in 10.0 mi NW 18.4 mph 23.0 mph N/A   Scattered Clouds
3:30 PM 71.6 °F 48.2 °F 43% 29.96 in 10.0 mi NW 15.0 mph 20.7 mph N/A   Scattered Clouds
3:50 PM 71.6 °F 48.2 °F 43% 29.97 in 10.0 mi NNW 13.8 mph 23.0 mph N/A   Scattered Clouds
4:11 PM 71.6 °F 48.2 °F 43% 29.97 in 10.0 mi NNW 13.8 mph 20.7 mph N/A   Clear
4:31 PM 69.8 °F 48.2 °F 46% 29.97 in 10.0 mi NW 16.1 mph 21.9 mph N/A   Clear
4:50 PM 71.6 °F 48.2 °F 43% 29.97 in 10.0 mi NW 15.0 mph 21.9 mph N/A   Clear
5:11 PM 71.6 °F 48.2 °F 43% 29.98 in 10.0 mi NW 11.5 mph 20.7 mph N/A   Scattered Clouds
5:31 PM 69.8 °F 48.2 °F 46% 29.98 in 10.0 mi NNW 10.4 mph - N/A   Scattered Clouds
5:50 PM 69.8 °F 48.2 °F 46% 29.98 in 10.0 mi NNW 10.4 mph 19.6 mph N/A   Clear
6:11 PM 69.8 °F 46.4 °F 43% 29.99 in 10.0 mi NW 12.7 mph 17.3 mph N/A   Clear
6:30 PM 69.8 °F 48.2 °F 46% 30.00 in 10.0 mi NW 11.5 mph 18.4 mph N/A   Clear
6:51 PM 69.8 °F 48.2 °F 46% 30.00 in 10.0 mi NW 11.5 mph - N/A   Clear
7:10 PM 68.0 °F 48.2 °F 49% 30.00 in 10.0 mi NW 8.1 mph - N/A   Clear
7:30 PM 66.2 °F 48.2 °F 52% 30.01 in 10.0 mi NW 4.6 mph - N/A   Clear
7:51 PM 64.4 °F 50.0 °F 59% 30.02 in 10.0 mi Calm Calm - N/A   Clear
8:10 PM 62.6 °F 51.8 °F 68% 30.02 in 10.0 mi Calm Calm - N/A   Clear
8:30 PM 59.0 °F 51.8 °F 77% 30.02 in 10.0 mi Calm Calm - N/A   Clear
8:50 PM 55.4 °F 51.8 °F 88% 30.03 in 10.0 mi Calm Calm - N/A   Clear
9:11 PM 55.4 °F 50.0 °F 82% 30.04 in 10.0 mi Calm Calm - N/A   Clear
9:31 PM 55.4 °F 50.0 °F 82% 30.05 in 10.0 mi Calm Calm - N/A   Clear
9:51 PM 55.4 °F 51.8 °F 88% 30.06 in 10.0 mi Calm Calm - N/A   Clear
10:11 PM 53.6 °F 48.2 °F 82% 30.07 in 10.0 mi Calm Calm - N/A   Clear
10:30 PM 53.6 °F 48.2 °F 82% 30.07 in 10.0 mi Calm Calm - N/A   Clear
10:51 PM 51.8 °F 48.2 °F 88% 30.09 in 10.0 mi Calm Calm - N/A   Clear
11:11 PM 53.6 °F 50.0 °F 88% 30.09 in 10.0 mi Calm Calm - N/A   Clear
11:31 PM 51.8 °F 46.4 °F 82% 30.09 in 10.0 mi Calm Calm - N/A   Clear
11:50 PM 51.8 °F 48.2 °F 88% 30.08 in 10.0 mi Calm Calm - N/A   Clear